"Pseudo-MPEC" for P10ObZN

Created 2019 Jun 20 19:07:23 UT using Find_Orb

Click here for an explanation of pseudo-MPECs

 
 Astrometry: 
     P10ObZN  C2019 05 28+59.gXDAstrometrynMjR@j`B;RX9Tx7.nPDFlcgKndCC!8JkDE6F51
     P10ObZN  C2019 05 28+AQ7yjEQ[-y1QW:A)bwm?uj@redacted;3oe1:!p[R.4w-?X;?DlF51
     P10ObZN  C2019 05 28s!a:*#clickkRBfBS7(e+][f6CTgQtylmw8fySZ]WKiSlfJEW,dcF51
     P10ObZN  C2019 05 28i)YC^FtXF@KCYkvfK4CPWQBC!B!-,v,GVP_V$qVyvTXg*x8hererF51
     P10ObZN KC2019 05 30BCPs?sNaN[Hl1TnA^SR=%.!NiGL[?H$ouDiI_q^-dp2kTforeCqj291
     P10ObZN KC2019 05 30Rgln;5oBp5jO^fM'explanationi2yNt=x6Oijn39?]_gyt]ujLe291

Station data:
(291) LPL/Spacewatch II  (N31.961669 W111.599905)  US/Arizona.  Observers J.
   V. Scotti, R. S. McMillan. 1.8-m f/2.7 reflector + CCD.
(F51) Pan-STARRS 1, Haleakala  (N20.707235 W156.255910)  US/Hawaii.
   Observers N. Primak, A. Schultz, S. Watters, J. Thiel, T. Goggia. Measurer
   PS1 Science Consortium. 1.8-m Ritchey-Chrétien + CCD.

Orbital elements:  P10ObZN
   Perihelion 2019 Mar 31.563602 +/- 3.8 TT = 13:31:35 (JD 2458574.063602)
Epoch 2019 May 30.0 TT = JDT 2458633.5   Earth MOID: 0.0213   Ju: 0.0175
M  10.73013647 +/- 9                Ve: 0.0028   Ma: 0.0184   AutoNEOCP
n   0.18053140 +/- 0.132            Peri.   37.12691 +/- 11
a   3.10051763 +/- 1.52             Node    98.51384 +/- 9
e   0.8391993 +/- 0.0937            Incl.    1.66934 +/- 0.50
P   5.46                   H 24.5   G  0.15   U 11.4  
q 0.49856537 +/- 0.0522    Q 5.70246989 +/- 2.51
From 6 observations 2019 May 28-30 (47.4 hr); mean residual 0".26
Residuals in arcseconds: 
190528 F51  .25+  .15+    190528 F51  .12-  .11-    190530 291  .47-  .35-    
190528 F51  .01+  .10-    190528 F51  .14-  .06+    190530 291  .47+  .34+    

Ephemerides (geocentric):
Date (UTC) HH   RA              Dec         delta   r     elong  mag " sig PA
---- -- -- --  -------------   -----------  ------ ------ -----  --- ---- ---
2019 06 20 19  15 11 42.971   -16 03 49.72  .61068 1.5393 141.0 25.5  163  49
2019 06 20 20  15 11 44.703   -16 04 06.41  .61144 1.5399 140.9 25.5  164  49
2019 06 20 21  15 11 46.435   -16 04 23.08  .61220 1.5404 140.9 25.5  164  49
2019 06 20 22  15 11 48.168   -16 04 39.73  .61295 1.5410 140.9 25.5  165  50
2019 06 20 23  15 11 49.901   -16 04 56.36  .61371 1.5415 140.8 25.5  165  50
2019 06 21 00  15 11 51.635   -16 05 12.97  .61447 1.5421 140.8 25.5  166  50
2019 06 21 01  15 11 53.370   -16 05 29.56  .61522 1.5426 140.8 25.5  166  50
2019 06 21 02  15 11 55.106   -16 05 46.13  .61598 1.5432 140.7 25.5  167  50
2019 06 21 03  15 11 56.842   -16 06 02.68  .61674 1.5437 140.7 25.5  167  50
2019 06 21 04  15 11 58.580   -16 06 19.21  .61750 1.5443 140.7 25.5  168  50
2019 06 21 05  15 12 00.318   -16 06 35.73  .61826 1.5448 140.6 25.5  168  51
2019 06 21 06  15 12 02.056   -16 06 52.22  .61901 1.5454 140.6 25.5  169  51
2019 06 21 07  15 12 03.796   -16 07 08.70  .61977 1.5459 140.6 25.5  169  51
2019 06 21 08  15 12 05.536   -16 07 25.16  .62053 1.5465 140.5 25.5  170  51
2019 06 21 09  15 12 07.277   -16 07 41.59  .62129 1.5470 140.5 25.5  170  51
2019 06 21 10  15 12 09.019   -16 07 58.01  .62205 1.5476 140.5 25.5  171  51
2019 06 21 11  15 12 10.761   -16 08 14.42  .62281 1.5481 140.5 25.5  171  51
2019 06 21 12  15 12 12.504   -16 08 30.80  .62357 1.5487 140.4 25.5  172  52
2019 06 21 13  15 12 14.248   -16 08 47.16  .62433 1.5492 140.4 25.5  172  52
2019 06 21 14  15 12 15.993   -16 09 03.51  .62509 1.5498 140.4 25.5  173  52
2019 06 21 15  15 12 17.738   -16 09 19.83  .62585 1.5503 140.3 25.5  173  52
2019 06 21 16  15 12 19.484   -16 09 36.14  .62661 1.5509 140.3 25.5  174  52
2019 06 21 17  15 12 21.231   -16 09 52.43  .62737 1.5514 140.3 25.5  174  52
2019 06 21 18  15 12 22.979   -16 10 08.71  .62813 1.5520 140.2 25.5  175  52
2019 06 21 19  15 12 24.728   -16 10 24.96  .62889 1.5525 140.2 25.6  175  53
2019 06 21 20  15 12 26.477   -16 10 41.20  .62965 1.5531 140.2 25.6  176  53
2019 06 21 21  15 12 28.227   -16 10 57.41  .63042 1.5536 140.1 25.6  176  53
2019 06 21 22  15 12 29.978   -16 11 13.62  .63118 1.5541 140.1 25.6  177  53
2019 06 21 23  15 12 31.729   -16 11 29.80  .63194 1.5547 140.1 25.6  177  53
2019 06 22 00  15 12 33.482   -16 11 45.96  .63270 1.5552 140.0 25.6  178  53
2019 06 22 01  15 12 35.235   -16 12 02.11  .63346 1.5558 140.0 25.6  178  53
2019 06 22 02  15 12 36.989   -16 12 18.24  .63423 1.5563 140.0 25.6  179  53
2019 06 22 03  15 12 38.743   -16 12 34.35  .63499 1.5569 139.9 25.6  179  54
2019 06 22 04  15 12 40.499   -16 12 50.45  .63575 1.5574 139.9 25.6  180  54
2019 06 22 05  15 12 42.255   -16 13 06.52  .63652 1.5580 139.9 25.6  180  54
2019 06 22 06  15 12 44.012   -16 13 22.58  .63728 1.5585 139.8 25.6  181  54
2019 06 22 07  15 12 45.770   -16 13 38.62  .63804 1.5591 139.8 25.6  182  54
2019 06 22 08  15 12 47.528   -16 13 54.65  .63881 1.5596 139.8 25.6  182  54
2019 06 22 09  15 12 49.288   -16 14 10.66  .63957 1.5602 139.8 25.6  183  54
2019 06 22 10  15 12 51.048   -16 14 26.65  .64033 1.5607 139.7 25.6  183  55
2019 06 22 11  15 12 52.809   -16 14 42.62  .64110 1.5613 139.7 25.6  184  55
2019 06 22 12  15 12 54.571   -16 14 58.58  .64186 1.5618 139.7 25.6  184  55
2019 06 22 13  15 12 56.333   -16 15 14.52  .64263 1.5624 139.6 25.6  185  55
2019 06 22 14  15 12 58.097   -16 15 30.44  .64339 1.5629 139.6 25.6  185  55
2019 06 22 15  15 12 59.861   -16 15 46.35  .64416 1.5635 139.6 25.6  186  55
2019 06 22 16  15 13 01.626   -16 16 02.24  .64492 1.5640 139.5 25.6  186  55
2019 06 22 17  15 13 03.392   -16 16 18.11  .64569 1.5645 139.5 25.6  187  55
2019 06 22 18  15 13 05.158   -16 16 33.97  .64645 1.5651 139.5 25.6  187  56